SCP
0 0 0 0 0 0 0 0 0 0 0 0 0 0 0 0 0 0 0 0 0 0 0 0 0 0 0 0 0 0 0 0 0 0 0 0 0 0 0 0 0 0 0
0 0 0 0 0 0 0 0 0 0 0 0 0 0 0 0 0 0 0 0 0 0 0 0 0 0 0 0 0 0 0 0 0 0 0 0 0 0 0 0 0 0 0
0 0 0 0 0 0 0 0 0 0 0 0 0 0 0 0 0 0 0 0 0 0 0 0 0 0 0 0 0 0 0 0 0 0 0 0 0 0 0 0 0 0 0
0 0 0 0 0 0 0 0 0 0 0 0 0 0 0 0 0 0 0 0 0 0 0 0 0 0 0 0 0 0 0 0 0 0 0 0 0 0 0 0 0 0 0
0 0 0 0 0 0 0 0 0 0 0 0 0 0 0 0 0 0 0 0 0 0 0 0 0 0 0 0 0 0 0 0 0 0 0 0 0 0 0 0 0 0 0
0 0 0 0 0 0 0 0 0 0 0 0 0 0 0 0 0 0 0 0 0 0 0 0 0 0 0 0 0 0 0 0 0 0 0 0 0 0 0 0 0 0 0
0 0 0 0 0 0 0 0 0 0 0 0 0 0 0 0 0 0 0 0 0 0 0 0 0 0 0 0 0 0 0 0 0 0 0 0 0 0 0 0 0 0 0
0 0 0 0 0 0 0 0 0 0 0 0 0 0 0 0 0 0 0 0 0 0 0 0 0 0 0 0 0 0 0 0 0 0 0 0 0 0 0 0 0 0 0
0 0 0 0 0 0 0 0 0 0 0 0 0 0 0 0 0 0 0 0 0 0 0 0 0 0 0 0 0 0 0 0 0 0 0 0 0 0 0 0 0 0 0
0 0 0 0 0 0 0 0 0 0 0 0 0 0 0 0 0 0 0 0 0 0 0 0 0 0 0 0 0 0 0 0 0 0 0 0 0 0 0 0 0 0 0
0 0 0 0 0 0 0 0 0 0 0 0 0 0 0 0 0 0 0 0 0 0 0 0 0 0 0 0 0 0 0 0 0 0 0 0 0 0 0 0 0 0 0
0 0 0 0 0 0 0 0 0 0 0 0 0 0 0 0 0 0 0 0 0 0 0 0 0 0 0 0 0 0 0 0 0 0 0 0 0 0 0 0 0 0 0
0 0 0 0 0 0 0 0 0 0 0 0 0 0 0 0 0 0 0 0 0 0 0 0 0 0 0 0 0 0 0 0 0 0 0 0 0 0 0 0 0 0 0
0 0 0 0 0 0 0 0 0 0 0 0 0 0 0 0 0 0 0 0 0 0 0 0 0 0 0 0 0 0 0 0 0 0 0 0 0 0 0 0 0 0 0
0 0 0 0 0 0 0 0 0 0 0 0 0 0 0 0 0 0 0 0 0 0 0 0 0 0 0 0 0 0 0 0 0 0 0 0 0 0 0 0 0 0 0
0 0 0 0 0 0 0 0 0 0 0 0 0 0 0 0 0 0 0 0 0 0 0 0 0 0 0 0 0 0 0 0 0 0 0 0 0 0 0 0 0 0 0
0 0 0 0 0 0 0 0 0 0 0 0 0 0 0 0 0 0 0 0 0 0 0 0 0 0 0 0 0 0 0 0 0 0 0 0 0 0 0 0 0 0 0
0 0 0 0 0 0 0 0 0 0 0 0 0 0 0 0 0 0 0 0 0 0 0 0 0 0 0 0 0 0 0 0 0 0 0 0 0 0 0 0 0 0 0
0 0 -0 -0 0 0 0 0 0 0 0 0 0 0 0 0 0 0 0 0 0 0 0 0 0 0 0 0 0 0 0 0 0 0 0 0 0 0 0 0 0 0 0
-0 -0 0 0 0 0 0 0 0 0 0 0 0 0 0 -0 0 0 0 0 0 0 0 0 0 0 0 0 0 0 0 0 0 0 0 0 0 0 0 0 0 0 0
-0 0 0 0 0 0 0 0 0 0 0 0 0 0 0 0 0 0 0 0 0 0 0 0 0 0 0 0 0 0 0 0 0 0 0 0 0 0 0 0 0 0 0
-0 0 0 0 0 0 -0 0 0 0 0 0 0 -0 0 0 0 0 0 0 0 0 0 0 0 0 0 0 0 0 0 0 0 0 0 0 0 0 0 0 0 0 0
-0 0 0 0 0 0 0 0 0 0 0 0 0 0 0 0 0 0 0 0 0 0 0 0 0 0 0 0 0 0 0 0 0 0 0 0 0 0 0 0 0 0 0
0 0 0 0 0 0 0 0 0 0 0 0 0 0 0 0 0 0 0 0 0 0 0 0 0 0 0 0 0 0 0 0 0 0 0 0 0 0 0 0 0 0 0
0 0 0 0 0 0 0 0 0 0 0 0 0 0 0 0 0 0 0 0 0 0 0 0 0 0 0 0 0 0 0 0 0 0 0 0 0 0 0 0 0 0 0
0 0 0 0 0 0 0 0 0 0 0 0 0 0 0 0 0 0 0 0 0 0 0 0 0 0 0 0 0 0 0 0 0 0 0 0 0 0 0 0 0 0 0
Wind_Speed
3 3 3 2 2 2 2 2 2 2 1 1 1 1 1 0 0 1 2 2 2 1 2 2 3 2 2 2 2 1 2 1 1 1 1 1 1 2 1 1 1 1 1
3 3 3 2 2 2 2 2 2 1 1 1 0 1 1 1 1 1 1 2 2 2 2 3 2 2 2 2 2 2 1 1 1 2 1 1 1 1 1 1 1 1 1
4 3 2 2 2 2 1 1 1 1 1 1 1 1 1 1 1 1 1 1 2 2 2 2 2 2 2 2 2 2 3 1 1 2 2 2 1 1 2 1 1 1 1
4 4 3 2 2 1 1 1 1 1 1 1 1 2 1 1 1 1 1 1 2 1 2 1 1 2 2 2 2 2 2 3 1 0 0 1 1 1 1 2 1 1 1
4 4 3 3 2 2 2 1 1 1 1 1 2 2 2 1 1 2 2 2 1 1 1 2 1 1 1 2 2 2 2 2 2 2 1 0 1 1 1 2 2 2 2
5 4 4 3 2 2 2 2 2 2 2 2 2 2 2 2 2 2 1 1 1 1 1 2 1 1 1 1 2 2 3 2 2 1 1 1 1 1 1 2 2 2 2
5 4 4 3 2 2 2 2 2 2 2 2 2 2 2 2 2 2 1 1 1 1 1 1 1 1 1 1 1 1 2 2 3 2 2 1 1 1 1 1 2 2 2
4 4 3 3 2 2 2 2 2 2 2 2 1 1 1 2 1 2 1 1 1 1 1 1 1 1 1 1 1 1 1 1 2 2 2 2 1 1 1 1 1 2 2
4 4 3 3 3 2 2 2 2 2 2 2 2 1 1 2 2 2 2 1 1 1 1 1 1 1 1 1 1 1 1 1 2 2 1 1 1 1 1 2 2 2 3
4 4 3 3 3 2 2 2 2 2 2 2 1 1 1 2 2 1 1 1 1 1 1 1 1 1 0 0 1 1 1 1 2 2 2 2 1 1 1 2 2 2 3
4 3 3 3 3 2 2 2 2 2 2 2 2 2 1 2 2 1 1 1 1 1 1 1 1 1 0 0 0 1 1 1 2 2 2 2 1 1 1 1 2 2 2
3 3 3 3 2 2 2 2 2 2 2 2 2 1 1 1 2 1 1 1 1 1 1 1 1 1 1 1 1 0 0 1 1 2 2 2 2 2 1 1 2 2 2
3 3 3 2 2 2 2 2 2 2 1 2 2 2 1 1 1 1 1 1 1 1 1 1 1 1 1 1 1 1 1 1 1 2 2 2 2 2 2 2 2 2 2
4 3 3 2 2 2 2 2 2 2 1 2 2 2 1 1 1 1 1 1 1 1 0 0 0 0 0 1 1 1 1 1 2 2 2 3 3 3 3 3 3 2 3
4 4 3 3 2 2 2 2 2 2 1 1 2 1 1 2 2 1 1 1 0 0 0 0 0 1 1 1 1 1 2 2 2 3 3 3 4 5 4 4 3 3 3
4 4 4 3 3 3 2 2 2 1 2 1 1 1 1 1 1 1 1 0 0 1 0 1 1 1 1 2 3 3 2 2 2 3 3 4 4 5 7 8 7 6 5
4 5 4 4 3 3 2 2 2 2 2 2 1 2 1 1 1 1 1 1 1 1 1 1 1 1 1 3 4 4 3 2 2 3 3 4 4 5 3 6 8 7 9
3 4 4 3 3 3 2 2 2 2 2 2 2 1 1 1 1 1 1 1 1 1 1 1 1 2 2 4 5 5 3 3 3 4 4 4 4 4 4 4 4 5 6
3 3 3 3 3 3 3 3 2 2 2 2 2 1 1 1 1 1 1 1 1 1 1 1 2 2 3 4 5 5 2 2 3 3 4 4 4 7 8 4 4 5 5
2 2 2 2 3 3 4 3 3 3 3 2 2 1 2 2 2 2 1 1 1 1 1 2 2 3 3 4 5 5 1 2 2 3 3 6 6 8 8 4 4 6 5
2 2 2 3 3 4 4 4 3 3 3 2 2 1 2 2 2 2 1 1 1 1 2 2 2 2 3 4 5 5 2 2 3 3 3 3 8 9 9 8 5 7 6
1 2 2 2 2 3 4 4 4 3 2 2 2 2 2 2 1 1 1 1 1 1 2 2 2 2 2 4 5 6 6 5 3 3 3 4 9 10 10 7 8 9 7
1 1 2 2 2 3 4 4 3 3 3 2 2 2 2 2 1 2 2 1 1 2 2 2 2 3 2 3 6 7 7 8 4 4 7 9 10 9 6 7 9 7 3
2 2 2 2 2 2 3 3 3 3 3 3 3 2 2 2 2 2 2 2 2 2 2 2 3 3 2 2 2 2 3 6 5 4 6 8 9 7 7 6 4 3 3
2 2 3 3 3 2 2 2 3 3 3 3 3 2 2 2 2 2 2 3 3 3 3 3 3 3 3 4 6 4 3 3 4 4 3 2 3 3 3 3 3 2 2
2 2 3 3 3 2 2 2 3 3 3 3 3 2 2 2 2 2 2 4 5 6 7 7 6 5 7 8 9 9 9 9 8 5 3 3 3 4 3 3 3 3 3
Wind_Direction
137 119 121 129 121 112 110 114 116 104 97 117 151 171 190 141 44 93 107 112 100 105 133 130 140 134 131 137 123 96 111 84 80 70 37 308 193 166 163 161 150 167 164
142 141 143 128 117 116 118 115 107 111 111 120 169 171 136 128 130 93 99 107 100 86 106 127 134 138 135 125 121 107 94 77 78 99 106 12 327 306 214 182 192 209 197
163 159 153 137 117 121 134 130 131 131 139 138 123 101 81 91 103 89 86 72 83 85 92 119 128 129 140 143 136 132 116 121 46 77 118 133 222 282 276 230 197 209 233
153 153 144 127 119 112 102 113 122 128 142 150 140 133 137 138 143 126 117 93 89 80 81 87 121 132 136 145 148 135 125 133 152 215 15 132 158 170 279 283 260 236 240
140 135 131 122 105 94 116 130 121 128 128 117 124 123 118 128 107 98 96 94 93 93 89 91 82 108 129 147 150 142 140 145 161 162 160 322 337 254 180 262 291 295 265
126 117 106 98 89 85 110 128 120 107 109 110 116 125 124 112 101 92 90 89 83 83 77 104 101 90 94 120 155 162 168 171 171 165 149 157 177 218 203 239 264 271 269
127 124 121 115 110 110 111 113 103 100 103 99 109 128 138 125 124 128 119 99 71 51 30 76 118 126 112 104 109 151 178 179 181 182 182 179 196 190 211 232 264 275 279
131 126 125 125 118 104 110 106 97 88 95 102 107 112 120 125 121 111 111 108 101 82 47 49 73 120 141 120 115 140 186 172 184 197 189 191 202 192 215 225 242 282 285
131 127 122 122 124 126 128 128 112 95 88 94 95 92 92 102 109 114 109 102 91 80 69 62 66 65 118 156 151 170 202 189 190 196 206 206 212 204 219 226 210 216 259
130 127 129 123 119 118 112 108 114 112 100 87 93 90 80 86 98 97 102 104 92 79 109 87 76 68 48 161 164 179 212 196 212 193 192 212 220 226 230 227 234 225 237
146 137 130 118 112 107 109 104 109 113 107 100 90 81 65 68 78 83 92 94 85 88 83 68 53 53 35 349 243 206 193 217 229 216 198 219 224 234 236 226 229 242 241
146 142 131 119 115 120 120 111 114 116 124 123 112 105 88 80 79 82 74 71 80 84 79 71 62 48 27 8 355 293 282 241 252 244 223 228 243 244 242 234 236 244 243
157 155 145 147 152 151 146 140 132 129 121 120 118 113 107 96 92 85 69 62 67 60 52 57 47 29 0 325 315 311 295 264 253 254 249 242 239 247 249 248 245 254 266
178 178 174 175 172 172 162 150 142 133 131 131 131 136 142 134 114 91 74 68 71 72 50 40 19 315 303 295 308 305 292 291 280 266 253 245 241 240 241 248 242 248 258
191 195 190 190 186 178 167 151 144 137 133 127 132 139 136 126 119 116 107 82 69 33 223 250 277 272 251 269 311 305 297 294 292 280 268 260 262 266 258 260 248 242 247
205 204 200 194 190 183 173 157 156 156 136 138 145 130 128 130 136 149 139 136 269 262 246 237 243 256 270 299 297 297 277 276 280 281 280 277 270 273 276 277 273 264 251
204 203 201 196 192 184 173 175 174 161 149 156 162 153 155 155 161 172 174 214 234 241 252 252 254 255 269 292 294 296 293 274 272 273 276 279 280 286 272 277 280 275 271
208 203 199 197 187 171 165 159 157 165 167 171 173 164 161 177 185 188 215 240 242 236 239 247 257 265 274 287 293 296 290 278 270 268 265 267 266 268 270 263 265 263 265
203 198 191 191 181 172 165 156 169 180 182 180 179 180 180 196 205 217 232 239 244 254 254 250 253 262 276 282 292 301 276 273 275 279 274 272 263 277 285 277 271 276 274
188 183 179 178 180 177 163 165 185 191 198 187 188 199 192 199 213 222 234 240 234 241 264 270 262 258 263 281 290 301 279 282 290 291 284 284 285 287 292 278 267 271 272
190 175 174 185 192 174 163 177 191 205 195 176 187 208 203 205 210 219 232 230 238 248 262 272 275 269 271 284 285 289 288 281 288 292 294 289 295 291 291 290 271 273 282
189 174 178 193 191 175 171 185 205 203 173 174 193 210 211 212 208 201 230 229 221 240 257 267 281 273 267 273 275 279 285 293 283 284 284 287 297 296 297 295 290 292 297
218 188 177 187 200 186 177 192 205 178 170 179 197 207 208 203 200 203 222 232 220 232 253 255 266 275 267 269 277 284 289 293 292 284 292 300 305 305 300 294 295 295 285
217 200 178 189 211 200 185 196 189 174 175 189 202 204 196 206 217 227 225 227 228 232 249 259 266 274 276 269 267 273 284 290 293 293 295 302 305 304 298 296 291 283 273
209 194 193 202 211 197 195 197 186 174 187 199 206 205 203 207 223 236 236 238 236 232 240 242 244 261 271 277 284 291 285 285 281 296 293 290 291 287 286 286 283 278 279
199 197 202 209 211 194 197 198 187 181 190 202 204 203 203 211 217 232 260 256 251 262 262 261 259 264 273 284 286 290 293 295 297 295 276 275 277 277 278 281 287 284 278